Year,Month,Day,Hour,Minute,Value (Times are PST for temperature in C)
2021,04,19,00,00,7.40
2021,04,19,00,01,7.40
2021,04,19,00,02,7.40
2021,04,19,00,03,7.30
2021,04,19,00,04,7.30
2021,04,19,00,05,7.30
2021,04,19,00,06,7.30
2021,04,19,00,07,7.30
2021,04,19,00,08,7.30
2021,04,19,00,09,7.30
2021,04,19,00,10,7.30
2021,04,19,00,11,7.30
2021,04,19,00,12,7.30
2021,04,19,00,13,7.20
2021,04,19,00,14,7.20
2021,04,19,00,15,7.10
2021,04,19,00,16,7.10
2021,04,19,00,17,7.10
2021,04,19,00,18,7.10
2021,04,19,00,19,7.00
2021,04,19,00,20,7.00
2021,04,19,00,21,7.00
2021,04,19,00,22,6.90
2021,04,19,00,23,6.90
2021,04,19,00,24,6.90
2021,04,19,00,25,6.90
2021,04,19,00,26,6.90
2021,04,19,00,27,6.90
2021,04,19,00,28,6.90
2021,04,19,00,29,6.90
2021,04,19,00,30,6.90
2021,04,19,00,31,6.90
2021,04,19,00,32,7.00
2021,04,19,00,33,7.00
2021,04,19,00,34,7.00
2021,04,19,00,35,7.00
2021,04,19,00,36,6.90
2021,04,19,00,37,6.90
2021,04,19,00,38,6.90
2021,04,19,00,39,6.80
2021,04,19,00,40,6.80
2021,04,19,00,41,6.80
2021,04,19,00,42,6.80
2021,04,19,00,43,6.80
2021,04,19,00,44,6.90
2021,04,19,00,45,6.90
2021,04,19,00,46,6.90
2021,04,19,00,47,7.00
2021,04,19,00,48,7.00
2021,04,19,00,49,7.00
2021,04,19,00,50,7.00
2021,04,19,00,51,7.10
2021,04,19,00,52,7.10
2021,04,19,00,53,7.10
2021,04,19,00,54,7.10
2021,04,19,00,55,7.10
2021,04,19,00,56,7.10
2021,04,19,00,57,7.10
2021,04,19,00,58,7.00
2021,04,19,00,59,7.00
2021,04,19,01,00,6.90
2021,04,19,01,01,6.90
2021,04,19,01,02,6.90
2021,04,19,01,03,6.90
2021,04,19,01,04,6.80
2021,04,19,01,05,6.80
2021,04,19,01,06,6.80
2021,04,19,01,07,6.80
2021,04,19,01,08,6.70
2021,04,19,01,09,6.70
2021,04,19,01,10,6.70
2021,04,19,01,11,6.70
2021,04,19,01,12,6.70
2021,04,19,01,13,6.70
2021,04,19,01,14,6.60
2021,04,19,01,15,6.60
2021,04,19,01,16,6.60
2021,04,19,01,17,6.60
2021,04,19,01,18,6.60
2021,04,19,01,19,6.50
2021,04,19,01,20,6.50
2021,04,19,01,21,6.50
2021,04,19,01,22,6.50
2021,04,19,01,23,6.50
2021,04,19,01,24,6.50
2021,04,19,01,25,6.50
2021,04,19,01,26,6.50
2021,04,19,01,27,6.60
2021,04,19,01,28,6.60
2021,04,19,01,29,6.60
2021,04,19,01,30,6.60
2021,04,19,01,31,6.60
2021,04,19,01,32,6.60
2021,04,19,01,33,6.60
2021,04,19,01,34,6.60
2021,04,19,01,35,6.50
2021,04,19,01,36,6.50
2021,04,19,01,37,6.50
2021,04,19,01,38,6.50
2021,04,19,01,39,6.60
2021,04,19,01,40,6.70
2021,04,19,01,41,6.70
2021,04,19,01,42,6.80
2021,04,19,01,43,6.80
2021,04,19,01,44,6.80
2021,04,19,01,45,6.80
2021,04,19,01,46,6.70
2021,04,19,01,47,6.60
2021,04,19,01,48,6.60
2021,04,19,01,49,6.60
2021,04,19,01,50,6.60
2021,04,19,01,51,6.60
2021,04,19,01,52,6.60
2021,04,19,01,53,6.50
2021,04,19,01,54,6.50
2021,04,19,01,55,6.40
2021,04,19,01,56,6.40
2021,04,19,01,57,6.40
2021,04,19,01,58,6.30
2021,04,19,01,59,6.30
2021,04,19,02,00,6.30
2021,04,19,02,01,6.40
2021,04,19,02,02,6.40
2021,04,19,02,03,6.40
2021,04,19,02,04,6.40
2021,04,19,02,05,6.40
2021,04,19,02,06,6.40
2021,04,19,02,07,6.40
2021,04,19,02,08,6.40
2021,04,19,02,09,6.40
2021,04,19,02,10,6.40
2021,04,19,02,11,6.40
2021,04,19,02,12,6.40
2021,04,19,02,13,6.40
2021,04,19,02,14,6.40
2021,04,19,02,15,6.50
2021,04,19,02,16,6.50
2021,04,19,02,17,6.50
2021,04,19,02,18,6.50
2021,04,19,02,19,6.50
2021,04,19,02,20,6.40
2021,04,19,02,21,6.40
2021,04,19,02,22,6.40
2021,04,19,02,23,6.40
2021,04,19,02,24,6.40
2021,04,19,02,25,6.40
2021,04,19,02,26,6.40
2021,04,19,02,27,6.40
2021,04,19,02,28,6.40
2021,04,19,02,29,6.40
2021,04,19,02,30,6.30
2021,04,19,02,31,6.30
2021,04,19,02,32,6.30
2021,04,19,02,33,6.30
2021,04,19,02,34,6.30
2021,04,19,02,35,6.30
2021,04,19,02,36,6.20
2021,04,19,02,37,6.20
2021,04,19,02,38,6.20
2021,04,19,02,39,6.20
2021,04,19,02,40,6.20
2021,04,19,02,41,6.30
2021,04,19,02,42,6.30
2021,04,19,02,43,6.30
2021,04,19,02,44,6.20
2021,04,19,02,45,6.20
2021,04,19,02,46,6.20
2021,04,19,02,47,6.20
2021,04,19,02,48,6.20
2021,04,19,02,49,6.20
2021,04,19,02,50,6.20
2021,04,19,02,51,6.20
2021,04,19,02,52,6.10
2021,04,19,02,53,6.10
2021,04,19,02,54,6.10
2021,04,19,02,55,6.20
2021,04,19,02,56,6.20
2021,04,19,02,57,6.20
2021,04,19,02,58,6.20
2021,04,19,02,59,6.10
2021,04,19,03,00,6.20
2021,04,19,03,01,6.20
2021,04,19,03,02,6.20
2021,04,19,03,03,6.10
2021,04,19,03,04,6.10
2021,04,19,03,05,6.10
2021,04,19,03,06,6.10
2021,04,19,03,07,6.10
2021,04,19,03,08,6.10
2021,04,19,03,09,6.10
2021,04,19,03,10,6.10
2021,04,19,03,11,6.10
2021,04,19,03,12,6.10
2021,04,19,03,13,6.10
2021,04,19,03,14,6.10
2021,04,19,03,15,6.10
2021,04,19,03,16,6.10
2021,04,19,03,17,6.10
2021,04,19,03,18,6.10
2021,04,19,03,19,6.20
2021,04,19,03,20,6.10
2021,04,19,03,21,6.10
2021,04,19,03,22,6.10
2021,04,19,03,23,6.10
2021,04,19,03,24,6.10
2021,04,19,03,25,6.10
2021,04,19,03,26,6.00
2021,04,19,03,27,6.00
2021,04,19,03,28,6.00
2021,04,19,03,29,6.00
2021,04,19,03,30,6.00
2021,04,19,03,31,5.90
2021,04,19,03,32,5.90
2021,04,19,03,33,5.90
2021,04,19,03,34,5.90
2021,04,19,03,35,5.90
2021,04,19,03,36,5.90
2021,04,19,03,37,5.90
2021,04,19,03,38,5.90
2021,04,19,03,39,5.90
2021,04,19,03,40,5.90
2021,04,19,03,41,5.90
2021,04,19,03,42,5.80
2021,04,19,03,43,5.80
2021,04,19,03,44,5.80
2021,04,19,03,45,5.80
2021,04,19,03,46,5.80
2021,04,19,03,47,5.80
2021,04,19,03,48,5.80
2021,04,19,03,49,5.80
2021,04,19,03,50,5.80
2021,04,19,03,51,5.80
2021,04,19,03,52,5.80
2021,04,19,03,53,5.80
2021,04,19,03,54,5.80
2021,04,19,03,55,5.80
2021,04,19,03,56,5.80
2021,04,19,03,57,5.90
2021,04,19,03,58,5.90
2021,04,19,03,59,5.90
2021,04,19,04,00,5.90
2021,04,19,04,01,5.90
2021,04,19,04,02,5.90
2021,04,19,04,03,5.80
2021,04,19,04,04,5.80
2021,04,19,04,05,5.80
2021,04,19,04,06,5.80
2021,04,19,04,07,5.80
2021,04,19,04,08,5.80
2021,04,19,04,09,5.80
2021,04,19,04,10,5.80
2021,04,19,04,11,5.80
2021,04,19,04,12,5.80
2021,04,19,04,13,5.80
2021,04,19,04,14,5.80
2021,04,19,04,15,5.80
2021,04,19,04,16,5.80
2021,04,19,04,17,5.80
2021,04,19,04,18,5.70
2021,04,19,04,19,5.70
2021,04,19,04,20,5.70
2021,04,19,04,21,5.70
2021,04,19,04,22,5.60
2021,04,19,04,23,5.60
2021,04,19,04,24,5.60
2021,04,19,04,25,5.60
2021,04,19,04,26,5.50
2021,04,19,04,27,5.50
2021,04,19,04,28,5.50
2021,04,19,04,29,5.50
2021,04,19,04,30,5.50
2021,04,19,04,31,5.50
2021,04,19,04,32,5.50
2021,04,19,04,33,5.50
2021,04,19,04,34,5.50
2021,04,19,04,35,5.50
2021,04,19,04,36,5.50
2021,04,19,04,37,5.60
2021,04,19,04,38,5.60
2021,04,19,04,39,5.60
2021,04,19,04,40,5.70
2021,04,19,04,41,5.70
2021,04,19,04,42,5.70
2021,04,19,04,43,5.70
2021,04,19,04,44,5.70
2021,04,19,04,45,5.70
2021,04,19,04,46,5.70
2021,04,19,04,47,5.70
2021,04,19,04,48,5.70
2021,04,19,04,49,5.60
2021,04,19,04,50,5.60
2021,04,19,04,51,5.70
2021,04,19,04,52,5.70
2021,04,19,04,53,5.70
2021,04,19,04,54,5.80
2021,04,19,04,55,5.80
2021,04,19,04,56,5.80
2021,04,19,04,57,5.80
2021,04,19,04,58,5.80
2021,04,19,04,59,5.80
2021,04,19,05,00,5.80
2021,04,19,05,01,5.80
2021,04,19,05,02,5.80
2021,04,19,05,03,5.80
2021,04,19,05,04,5.80
2021,04,19,05,05,5.80
2021,04,19,05,06,5.80
2021,04,19,05,07,5.80
2021,04,19,05,08,5.80
2021,04,19,05,09,5.80
2021,04,19,05,10,5.80
2021,04,19,05,11,5.80
2021,04,19,05,12,5.80
2021,04,19,05,13,5.80
2021,04,19,05,14,5.80
2021,04,19,05,15,5.80
2021,04,19,05,16,5.80
2021,04,19,05,17,5.80
2021,04,19,05,18,5.90
2021,04,19,05,19,5.90
2021,04,19,05,20,6.00
2021,04,19,05,21,6.10
2021,04,19,05,22,6.10
2021,04,19,05,23,6.10
2021,04,19,05,24,6.10
2021,04,19,05,25,6.20
2021,04,19,05,26,6.20
2021,04,19,05,27,6.20
2021,04,19,05,28,6.20
2021,04,19,05,29,6.20
2021,04,19,05,30,6.30
2021,04,19,05,31,6.30
2021,04,19,05,32,6.30
2021,04,19,05,33,6.30
2021,04,19,05,34,6.40
2021,04,19,05,35,6.40
2021,04,19,05,36,6.40
2021,04,19,05,37,6.30
2021,04,19,05,38,6.30
2021,04,19,05,39,6.30
2021,04,19,05,40,6.30
2021,04,19,05,41,6.30
2021,04,19,05,42,6.30
2021,04,19,05,43,6.20
2021,04,19,05,44,6.20
2021,04,19,05,45,6.10
2021,04,19,05,46,6.10
2021,04,19,05,47,6.10
2021,04,19,05,48,6.10
2021,04,19,05,49,6.20
2021,04,19,05,50,6.20
2021,04,19,05,51,6.20
2021,04,19,05,52,6.20
2021,04,19,05,53,6.20
2021,04,19,05,54,6.20
2021,04,19,05,55,6.10
2021,04,19,05,56,6.10
2021,04,19,05,57,6.10
2021,04,19,05,58,6.10
2021,04,19,05,59,6.10
2021,04,19,06,00,6.10
2021,04,19,06,01,6.10
2021,04,19,06,02,6.10
2021,04,19,06,03,6.10
2021,04,19,06,04,6.20
2021,04,19,06,05,6.20
2021,04,19,06,06,6.20
2021,04,19,06,07,6.20
2021,04,19,06,08,6.30
2021,04,19,06,09,6.30
2021,04,19,06,10,6.30
2021,04,19,06,11,6.30
2021,04,19,06,12,6.20
2021,04,19,06,13,6.20
2021,04,19,06,14,6.20
2021,04,19,06,15,6.20
2021,04,19,06,16,6.20
2021,04,19,06,17,6.20
2021,04,19,06,18,6.10
2021,04,19,06,19,6.10
2021,04,19,06,20,6.10
2021,04,19,06,21,6.00
2021,04,19,06,22,6.00
2021,04,19,06,23,6.00
2021,04,19,06,24,6.00
2021,04,19,06,25,5.90
2021,04,19,06,26,5.90
2021,04,19,06,27,5.90
2021,04,19,06,28,5.90
2021,04,19,06,29,5.90
2021,04,19,06,30,5.90
2021,04,19,06,31,5.90
2021,04,19,06,32,5.90
2021,04,19,06,33,6.00
2021,04,19,06,34,6.00
2021,04,19,06,35,6.00
2021,04,19,06,36,6.00
2021,04,19,06,37,6.00
2021,04,19,06,38,6.00
2021,04,19,06,39,6.10
2021,04,19,06,40,6.10
2021,04,19,06,41,6.20
2021,04,19,06,42,6.30
2021,04,19,06,43,6.30
2021,04,19,06,44,6.30
2021,04,19,06,45,6.30
2021,04,19,06,46,6.30
2021,04,19,06,47,6.30
2021,04,19,06,48,6.20
2021,04,19,06,49,6.20
2021,04,19,06,50,6.20
2021,04,19,06,51,6.20
2021,04,19,06,52,6.20
2021,04,19,06,53,6.20
2021,04,19,06,54,6.20
2021,04,19,06,55,6.20
2021,04,19,06,56,6.20
2021,04,19,06,57,6.20
2021,04,19,06,58,6.20
2021,04,19,06,59,6.20
2021,04,19,07,00,6.30
2021,04,19,07,01,6.40
2021,04,19,07,02,6.40
2021,04,19,07,03,6.50
2021,04,19,07,04,6.50
2021,04,19,07,05,6.50
2021,04,19,07,06,6.60
2021,04,19,07,07,6.60
2021,04,19,07,08,6.60
2021,04,19,07,09,6.60
2021,04,19,07,10,6.60
2021,04,19,07,11,6.60
2021,04,19,07,12,6.70
2021,04,19,07,13,6.70
2021,04,19,07,14,6.70
2021,04,19,07,15,6.80
2021,04,19,07,16,6.80
2021,04,19,07,17,6.90
2021,04,19,07,18,6.90
2021,04,19,07,19,7.00
2021,04,19,07,20,7.10
2021,04,19,07,21,7.10
2021,04,19,07,22,7.20
2021,04,19,07,23,7.30
2021,04,19,07,24,7.30
2021,04,19,07,25,7.40
2021,04,19,07,26,7.40
2021,04,19,07,27,7.40
2021,04,19,07,28,7.50
2021,04,19,07,29,7.60
2021,04,19,07,30,7.80
2021,04,19,07,31,7.80
2021,04,19,07,32,7.90
2021,04,19,07,33,7.90
2021,04,19,07,34,8.00
2021,04,19,07,35,8.00
2021,04,19,07,36,8.10
2021,04,19,07,37,8.20
2021,04,19,07,38,8.20
2021,04,19,07,39,8.30
2021,04,19,07,40,8.40
2021,04,19,07,41,8.50
2021,04,19,07,42,8.50
2021,04,19,07,43,8.60
2021,04,19,07,44,8.60
2021,04,19,07,45,8.70
2021,04,19,07,46,8.70
2021,04,19,07,47,8.90
2021,04,19,07,48,9.00
2021,04,19,07,49,9.10
2021,04,19,07,50,9.20
2021,04,19,07,51,9.30
2021,04,19,07,52,9.30
2021,04,19,07,53,9.40
2021,04,19,07,54,9.40
2021,04,19,07,55,9.50
2021,04,19,07,56,9.50
2021,04,19,07,57,9.70
2021,04,19,07,58,9.80
2021,04,19,07,59,9.80
2021,04,19,08,00,9.90
2021,04,19,08,01,10.00
2021,04,19,08,02,10.00
2021,04,19,08,03,10.10
2021,04,19,08,04,10.20
2021,04,19,08,05,10.30
2021,04,19,08,06,10.50
2021,04,19,08,07,10.60
2021,04,19,08,08,10.70
2021,04,19,08,09,10.70
2021,04,19,08,10,10.80
2021,04,19,08,11,10.90
2021,04,19,08,12,11.00
2021,04,19,08,13,11.00
2021,04,19,08,14,11.10
2021,04,19,08,15,11.20
2021,04,19,08,16,11.30
2021,04,19,08,17,11.40
2021,04,19,08,18,11.50
2021,04,19,08,19,11.60
2021,04,19,08,20,11.70
2021,04,19,08,21,11.80
2021,04,19,08,22,11.80
2021,04,19,08,23,11.80
2021,04,19,08,24,11.90
2021,04,19,08,25,12.00
2021,04,19,08,26,12.00
2021,04,19,08,27,12.10
2021,04,19,08,28,12.20
2021,04,19,08,29,12.30
2021,04,19,08,30,12.30
2021,04,19,08,31,12.30
2021,04,19,08,32,12.40
2021,04,19,08,33,12.40
2021,04,19,08,34,12.50
2021,04,19,08,35,12.60
2021,04,19,08,36,12.80
2021,04,19,08,37,13.00
2021,04,19,08,38,13.20
2021,04,19,08,39,13.40
2021,04,19,08,40,13.60
2021,04,19,08,41,13.80
2021,04,19,08,42,14.00
2021,04,19,08,43,14.20
2021,04,19,08,44,14.30
2021,04,19,08,45,14.50
2021,04,19,08,46,14.70
2021,04,19,08,47,14.80
2021,04,19,08,48,14.90
2021,04,19,08,49,15.10
2021,04,19,08,50,15.20
2021,04,19,08,51,15.30
2021,04,19,08,52,15.40
2021,04,19,08,53,15.40
2021,04,19,08,54,15.40
2021,04,19,08,55,15.50
2021,04,19,08,56,15.50
2021,04,19,08,57,15.60
2021,04,19,08,58,15.60
2021,04,19,08,59,15.60
2021,04,19,09,00,15.70
2021,04,19,09,01,15.80
2021,04,19,09,02,15.90
2021,04,19,09,03,15.90
2021,04,19,09,04,16.00
2021,04,19,09,05,16.10
2021,04,19,09,06,16.20
2021,04,19,09,07,16.30
2021,04,19,09,08,16.50
2021,04,19,09,09,16.60
2021,04,19,09,10,16.60
2021,04,19,09,11,16.70
2021,04,19,09,12,16.70
2021,04,19,09,13,16.80
2021,04,19,09,14,16.90
2021,04,19,09,15,17.00
2021,04,19,09,16,17.00
2021,04,19,09,17,17.10
2021,04,19,09,18,17.20
2021,04,19,09,19,17.30
2021,04,19,09,20,17.40
2021,04,19,09,21,17.50
2021,04,19,09,22,17.60
2021,04,19,09,23,17.60
2021,04,19,09,24,17.70
2021,04,19,09,25,17.70
2021,04,19,09,26,17.70
2021,04,19,09,27,17.70
2021,04,19,09,28,17.80
2021,04,19,09,29,17.80
2021,04,19,09,30,17.80
2021,04,19,09,31,17.80
2021,04,19,09,32,17.90
2021,04,19,09,33,17.90
2021,04,19,09,34,17.90
2021,04,19,09,35,17.90
2021,04,19,09,36,17.80
2021,04,19,09,37,17.60
2021,04,19,09,38,17.30
2021,04,19,09,39,17.10
2021,04,19,09,40,16.80
2021,04,19,09,41,16.60
2021,04,19,09,42,16.40
2021,04,19,09,43,16.20
2021,04,19,09,44,15.90
2021,04,19,09,45,15.80
2021,04,19,09,46,15.60
2021,04,19,09,47,15.40
2021,04,19,09,48,15.30
2021,04,19,09,49,15.10
2021,04,19,09,50,14.90
2021,04,19,09,51,14.80
2021,04,19,09,52,14.60
2021,04,19,09,53,14.50
2021,04,19,09,54,14.40
2021,04,19,09,55,14.40
2021,04,19,09,56,14.30
2021,04,19,09,57,14.40
2021,04,19,09,58,14.40
2021,04,19,09,59,14.40
2021,04,19,10,00,14.40
2021,04,19,10,01,14.40
2021,04,19,10,02,14.40
2021,04,19,10,03,14.40
2021,04,19,10,04,14.40
2021,04,19,10,05,14.40
2021,04,19,10,06,14.40
2021,04,19,10,07,14.30
2021,04,19,10,08,14.20
2021,04,19,10,09,14.00
2021,04,19,10,10,13.90
2021,04,19,10,11,13.80
2021,04,19,10,12,13.80
2021,04,19,10,13,13.80
2021,04,19,10,14,13.70
2021,04,19,10,15,13.70
2021,04,19,10,16,13.70
2021,04,19,10,17,13.80
2021,04,19,10,18,13.80
2021,04,19,10,19,13.90
2021,04,19,10,20,13.90
2021,04,19,10,21,13.90
2021,04,19,10,22,14.00
2021,04,19,10,23,14.00
2021,04,19,10,24,14.00
2021,04,19,10,25,14.00
2021,04,19,10,26,14.10
2021,04,19,10,27,14.20
2021,04,19,10,28,14.30
2021,04,19,10,29,14.30
2021,04,19,10,30,14.30
2021,04,19,10,31,14.30
2021,04,19,10,32,14.40
2021,04,19,10,33,14.40
2021,04,19,10,34,14.40
2021,04,19,10,35,14.40
2021,04,19,10,36,14.50
2021,04,19,10,37,14.60
2021,04,19,10,38,14.60
2021,04,19,10,39,14.70
2021,04,19,10,40,14.80
2021,04,19,10,41,14.80
2021,04,19,10,42,14.80
2021,04,19,10,43,14.90
2021,04,19,10,44,14.90
2021,04,19,10,45,15.00
2021,04,19,10,46,15.10
2021,04,19,10,47,15.20
2021,04,19,10,48,15.20
2021,04,19,10,49,15.30
2021,04,19,10,50,15.30
2021,04,19,10,51,15.40
2021,04,19,10,52,15.40
2021,04,19,10,53,15.50
2021,04,19,10,54,15.60
2021,04,19,10,55,15.70
2021,04,19,10,56,15.80
2021,04,19,10,57,15.80
2021,04,19,10,58,15.80
2021,04,19,10,59,15.80
2021,04,19,11,00,15.70
2021,04,19,11,01,15.70
2021,04,19,11,02,15.80
2021,04,19,11,03,15.80
2021,04,19,11,04,15.80
2021,04,19,11,05,15.80
2021,04,19,11,06,15.80
2021,04,19,11,07,15.80
2021,04,19,11,08,15.80
2021,04,19,11,09,15.70
2021,04,19,11,10,15.70
2021,04,19,11,11,15.70
2021,04,19,11,12,15.80
2021,04,19,11,13,15.90
2021,04,19,11,14,16.00
2021,04,19,11,15,16.10
2021,04,19,11,16,16.20
2021,04,19,11,17,16.20
2021,04,19,11,18,16.20
2021,04,19,11,19,16.20
2021,04,19,11,20,16.30
2021,04,19,11,21,16.30
2021,04,19,11,22,16.20
2021,04,19,11,23,16.10
2021,04,19,11,24,16.10
2021,04,19,11,25,16.10
2021,04,19,11,26,16.10
2021,04,19,11,27,16.20
2021,04,19,11,28,16.20
2021,04,19,11,29,16.20
2021,04,19,11,30,16.10
2021,04,19,11,31,16.00
2021,04,19,11,32,16.00
2021,04,19,11,33,15.90
2021,04,19,11,34,16.00
2021,04,19,11,35,16.00
2021,04,19,11,36,16.00
2021,04,19,11,37,15.90
2021,04,19,11,38,15.80
2021,04,19,11,39,15.60
2021,04,19,11,40,15.40
2021,04,19,11,41,15.30
2021,04,19,11,42,15.20
2021,04,19,11,43,15.10
2021,04,19,11,44,15.00
2021,04,19,11,45,14.90
2021,04,19,11,46,14.80
2021,04,19,11,47,14.80
2021,04,19,11,48,14.90
2021,04,19,11,49,15.00
2021,04,19,11,50,15.10
2021,04,19,11,51,15.10
2021,04,19,11,52,15.10
2021,04,19,11,53,15.00
2021,04,19,11,54,14.90
2021,04,19,11,55,14.70
2021,04,19,11,56,14.60
2021,04,19,11,57,14.50
2021,04,19,11,58,14.40
2021,04,19,11,59,14.40
2021,04,19,12,00,14.40
2021,04,19,12,01,14.30
2021,04,19,12,02,14.20
2021,04,19,12,03,14.00
2021,04,19,12,04,14.00
2021,04,19,12,05,13.90
2021,04,19,12,06,13.80
2021,04,19,12,07,13.60
2021,04,19,12,08,13.50
2021,04,19,12,09,13.50
2021,04,19,12,10,13.50
2021,04,19,12,11,13.40
2021,04,19,12,12,13.40
2021,04,19,12,13,13.40
2021,04,19,12,14,13.40
2021,04,19,12,15,13.40
2021,04,19,12,16,13.40
2021,04,19,12,17,13.50
2021,04,19,12,18,13.60
2021,04,19,12,19,13.60
2021,04,19,12,20,13.60
2021,04,19,12,21,13.60
2021,04,19,12,22,13.50
2021,04,19,12,23,13.50
2021,04,19,12,24,13.50
2021,04,19,12,25,13.50
2021,04,19,12,26,13.50
2021,04,19,12,27,13.60
2021,04,19,12,28,13.60
2021,04,19,12,29,13.60
2021,04,19,12,30,13.60
2021,04,19,12,31,13.70
2021,04,19,12,32,13.80
2021,04,19,12,33,13.80
2021,04,19,12,34,13.90
2021,04,19,12,35,14.10
2021,04,19,12,36,14.10
2021,04,19,12,37,14.20
2021,04,19,12,38,14.20
2021,04,19,12,39,14.20
2021,04,19,12,40,14.20
2021,04,19,12,41,14.20
2021,04,19,12,42,14.20
2021,04,19,12,43,14.10
2021,04,19,12,44,14.10
2021,04,19,12,45,14.10
2021,04,19,12,46,14.10
2021,04,19,12,47,14.10
2021,04,19,12,48,14.20
2021,04,19,12,49,14.30
2021,04,19,12,50,14.30
2021,04,19,12,51,14.30
2021,04,19,12,52,14.30
2021,04,19,12,53,14.30
2021,04,19,12,54,14.30
2021,04,19,12,55,14.30
2021,04,19,12,56,14.20
2021,04,19,12,57,14.20
2021,04,19,12,58,14.20
2021,04,19,12,59,14.20
2021,04,19,13,00,14.20
2021,04,19,13,01,14.20
2021,04,19,13,02,14.20
2021,04,19,13,03,14.20
2021,04,19,13,04,14.30
2021,04,19,13,05,14.30
2021,04,19,13,06,14.40
2021,04,19,13,07,14.40
2021,04,19,13,08,14.50
2021,04,19,13,09,14.50
2021,04,19,13,10,14.60
2021,04,19,13,11,14.60
2021,04,19,13,12,14.60
2021,04,19,13,13,14.70
2021,04,19,13,14,14.70
2021,04,19,13,15,14.80
2021,04,19,13,16,14.90
2021,04,19,13,17,14.90
2021,04,19,13,18,14.90
2021,04,19,13,19,14.90
2021,04,19,13,20,14.90
2021,04,19,13,21,14.90
2021,04,19,13,22,14.80
2021,04,19,13,23,14.80
2021,04,19,13,24,14.80
2021,04,19,13,25,14.70
2021,04,19,13,26,14.60
2021,04,19,13,27,14.60
2021,04,19,13,28,14.60
2021,04,19,13,29,14.60
2021,04,19,13,30,14.50
2021,04,19,13,31,14.40
2021,04,19,13,32,14.50
2021,04,19,13,33,14.50
2021,04,19,13,34,14.40
2021,04,19,13,35,14.40
2021,04,19,13,36,14.40
2021,04,19,13,37,14.40
2021,04,19,13,38,14.40
2021,04,19,13,39,14.50
2021,04,19,13,40,14.50
2021,04,19,13,41,14.50
2021,04,19,13,42,14.50
2021,04,19,13,43,14.50
2021,04,19,13,44,14.50
2021,04,19,13,45,14.50
2021,04,19,13,46,14.50
2021,04,19,13,47,14.50
2021,04,19,13,48,14.60
2021,04,19,13,49,14.60
2021,04,19,13,50,14.70
2021,04,19,13,51,14.70
2021,04,19,13,52,14.70
2021,04,19,13,53,14.80
2021,04,19,13,54,14.90
2021,04,19,13,55,15.00
2021,04,19,13,56,15.10
2021,04,19,13,57,15.10
2021,04,19,13,58,15.20
2021,04,19,13,59,15.20
2021,04,19,14,00,15.30
2021,04,19,14,01,15.30
2021,04,19,14,02,15.30
2021,04,19,14,03,15.30
2021,04,19,14,04,15.30
2021,04,19,14,05,15.40
2021,04,19,14,06,15.40
2021,04,19,14,07,15.40
2021,04,19,14,08,15.40
2021,04,19,14,09,15.30
2021,04,19,14,10,15.30
2021,04,19,14,11,15.30
2021,04,19,14,12,15.20
2021,04,19,14,13,15.20
2021,04,19,14,14,15.20
2021,04,19,14,15,15.30
2021,04,19,14,16,15.30
2021,04,19,14,17,15.40
2021,04,19,14,18,15.40
2021,04,19,14,19,15.40
2021,04,19,14,20,15.40
2021,04,19,14,21,15.40
2021,04,19,14,22,15.40
2021,04,19,14,23,15.40
2021,04,19,14,24,15.30
2021,04,19,14,25,15.30
2021,04,19,14,26,15.30
2021,04,19,14,27,15.30
2021,04,19,14,28,15.30
2021,04,19,14,29,15.20
2021,04,19,14,30,15.30
2021,04,19,14,31,15.30
2021,04,19,14,32,15.30
2021,04,19,14,33,15.30
2021,04,19,14,34,15.30
2021,04,19,14,35,15.30
2021,04,19,14,36,15.30
2021,04,19,14,37,15.40
2021,04,19,14,38,15.40
2021,04,19,14,39,15.50
2021,04,19,14,40,15.60
2021,04,19,14,41,15.60
2021,04,19,14,42,15.70
2021,04,19,14,43,15.70
2021,04,19,14,44,15.80
2021,04,19,14,45,15.80
2021,04,19,14,46,15.80
2021,04,19,14,47,15.90
2021,04,19,14,48,15.90
2021,04,19,14,49,15.90
2021,04,19,14,50,16.00
2021,04,19,14,51,16.00
2021,04,19,14,52,16.10
2021,04,19,14,53,16.10
2021,04,19,14,54,16.10
2021,04,19,14,55,16.20
2021,04,19,14,56,16.20
2021,04,19,14,57,16.20
2021,04,19,14,58,16.30
2021,04,19,14,59,16.30
2021,04,19,15,00,16.40
2021,04,19,15,01,16.50
2021,04,19,15,02,16.60
2021,04,19,15,03,16.70
2021,04,19,15,04,16.80
2021,04,19,15,05,16.80
2021,04,19,15,06,16.80
2021,04,19,15,07,16.80
2021,04,19,15,08,16.80
2021,04,19,15,09,16.80
2021,04,19,15,10,16.70
2021,04,19,15,11,16.70
2021,04,19,15,12,16.60
2021,04,19,15,13,16.60
2021,04,19,15,14,16.60
2021,04,19,15,15,16.70
2021,04,19,15,16,16.70
2021,04,19,15,17,16.80
2021,04,19,15,18,16.80
2021,04,19,15,19,16.80
2021,04,19,15,20,16.90
2021,04,19,15,21,16.90
2021,04,19,15,22,16.80
2021,04,19,15,23,16.80
2021,04,19,15,24,16.70
2021,04,19,15,25,16.70
2021,04,19,15,26,16.60
2021,04,19,15,27,16.50
2021,04,19,15,28,16.30
2021,04,19,15,29,16.30
2021,04,19,15,30,16.20
2021,04,19,15,31,16.20
2021,04,19,15,32,16.10
2021,04,19,15,33,16.00
2021,04,19,15,34,15.90
2021,04,19,15,35,15.90
2021,04,19,15,36,15.80
2021,04,19,15,37,15.70
2021,04,19,15,38,15.70
2021,04,19,15,39,15.70
2021,04,19,15,40,15.70
2021,04,19,15,41,15.70
2021,04,19,15,42,15.60
2021,04,19,15,43,15.60
2021,04,19,15,44,15.50
2021,04,19,15,45,15.40
2021,04,19,15,46,15.30
2021,04,19,15,47,15.20
2021,04,19,15,48,15.10
2021,04,19,15,49,15.00
2021,04,19,15,50,15.00
2021,04,19,15,51,14.90
2021,04,19,15,52,14.80
2021,04,19,15,53,14.80
2021,04,19,15,54,14.70
2021,04,19,15,55,14.60
2021,04,19,15,56,14.50
2021,04,19,15,57,14.50
2021,04,19,15,58,14.50
2021,04,19,15,59,14.50
2021,04,19,16,00,14.40
2021,04,19,16,01,14.40
2021,04,19,16,02,14.30
2021,04,19,16,03,14.30
2021,04,19,16,04,14.30
2021,04,19,16,05,14.40
2021,04,19,16,06,14.40
2021,04,19,16,07,14.40
2021,04,19,16,08,14.50
2021,04,19,16,09,14.60
2021,04,19,16,10,14.70
2021,04,19,16,11,14.70
2021,04,19,16,12,14.80
2021,04,19,16,13,14.80
2021,04,19,16,14,14.90
2021,04,19,16,15,14.80
2021,04,19,16,16,14.90
2021,04,19,16,17,14.80
2021,04,19,16,18,14.70
2021,04,19,16,19,14.60
2021,04,19,16,20,14.50
2021,04,19,16,21,14.40
2021,04,19,16,22,14.30
2021,04,19,16,23,14.30
2021,04,19,16,24,14.20
2021,04,19,16,25,14.20
2021,04,19,16,26,14.10
2021,04,19,16,27,14.10
2021,04,19,16,28,14.10
2021,04,19,16,29,14.10
2021,04,19,16,30,14.10
2021,04,19,16,31,14.10
2021,04,19,16,32,14.10
2021,04,19,16,33,14.10
2021,04,19,16,34,14.00
2021,04,19,16,35,13.90
2021,04,19,16,36,13.90
2021,04,19,16,37,13.90
2021,04,19,16,38,14.00
2021,04,19,16,39,14.00
2021,04,19,16,40,14.00
2021,04,19,16,41,14.10
2021,04,19,16,42,14.20
2021,04,19,16,43,14.20
2021,04,19,16,44,14.30
2021,04,19,16,45,14.40
2021,04,19,16,46,14.50
2021,04,19,16,47,14.50
2021,04,19,16,48,14.60
2021,04,19,16,49,14.60
2021,04,19,16,50,14.70
2021,04,19,16,51,14.70
2021,04,19,16,52,14.80
2021,04,19,16,53,14.90
2021,04,19,16,54,15.00
2021,04,19,16,55,15.10
2021,04,19,16,56,15.00
2021,04,19,16,57,15.00
2021,04,19,16,58,15.00
2021,04,19,16,59,15.00
2021,04,19,17,00,15.00
2021,04,19,17,01,14.90
2021,04,19,17,02,14.90
2021,04,19,17,03,14.90
2021,04,19,17,04,14.90
2021,04,19,17,05,14.90
2021,04,19,17,06,14.90
2021,04,19,17,07,15.00
2021,04,19,17,08,15.10
2021,04,19,17,09,15.20
2021,04,19,17,10,15.30
2021,04,19,17,11,15.30
2021,04,19,17,12,15.30
2021,04,19,17,13,15.30
2021,04,19,17,14,15.40
2021,04,19,17,15,15.40
2021,04,19,17,16,15.50
2021,04,19,17,17,15.50
2021,04,19,17,18,15.50
2021,04,19,17,19,15.40
2021,04,19,17,20,15.40
2021,04,19,17,21,15.40
2021,04,19,17,22,15.40
2021,04,19,17,23,15.50
2021,04,19,17,24,15.50
2021,04,19,17,25,15.60
2021,04,19,17,26,15.60
2021,04,19,17,27,15.60
2021,04,19,17,28,15.60
2021,04,19,17,29,15.60
2021,04,19,17,30,15.60
2021,04,19,17,31,15.60
2021,04,19,17,32,15.60
2021,04,19,17,33,15.70
2021,04,19,17,34,15.70
2021,04,19,17,35,15.70
2021,04,19,17,36,15.80
2021,04,19,17,37,15.80
2021,04,19,17,38,15.80
2021,04,19,17,39,15.80
2021,04,19,17,40,15.80